TimePDT,TemperatureF,Dew PointF,Humidity,Sea Level PressureIn,VisibilityMPH,Wind Direction,Wind SpeedMPH,Gust SpeedMPH,PrecipitationIn,Events,Conditions,WindDirDegrees,DateUTC
12:15 AM,68.0,39.2,35,29.80,10.0,SSE,3.5,-,N/A,,Clear,150,2013-08-24 07:15:00
12:35 AM,69.8,41.0,35,29.80,10.0,ESE,5.8,-,N/A,,Clear,110,2013-08-24 07:35:00
12:55 AM,66.2,39.2,37,29.81,10.0,Calm,Calm,-,N/A,,Clear,0,2013-08-24 07:55:00
1:15 AM,66.2,39.2,37,29.82,10.0,SSE,3.5,-,N/A,,Clear,160,2013-08-24 08:15:00
1:35 AM,66.2,39.2,37,29.82,10.0,Calm,Calm,-,N/A,,Clear,0,2013-08-24 08:35:00
1:55 AM,66.2,39.2,37,29.82,10.0,SE,3.5,-,N/A,,Clear,130,2013-08-24 08:55:00
2:15 AM,64.4,39.2,40,29.81,10.0,SSE,3.5,-,N/A,,Clear,150,2013-08-24 09:15:00
2:35 AM,64.4,39.2,40,29.81,10.0,SE,3.5,-,N/A,,Clear,140,2013-08-24 09:35:00
2:55 AM,62.6,37.4,39,29.82,10.0,ESE,5.8,-,N/A,,Clear,120,2013-08-24 09:55:00
3:15 AM,62.6,37.4,39,29.81,10.0,SE,5.8,-,N/A,,Clear,140,2013-08-24 10:15:00
3:35 AM,62.6,37.4,39,29.82,10.0,SSE,5.8,-,N/A,,Clear,150,2013-08-24 10:35:00
3:55 AM,60.8,35.6,39,29.82,10.0,South,4.6,-,N/A,,Clear,180,2013-08-24 10:55:00
4:15 AM,60.8,35.6,39,29.82,10.0,SSE,3.5,-,N/A,,Clear,150,2013-08-24 11:15:00
4:35 AM,60.8,35.6,39,29.83,10.0,SSE,6.9,-,N/A,,Clear,150,2013-08-24 11:35:00
4:55 AM,60.8,35.6,39,29.83,10.0,SE,5.8,-,N/A,,Clear,140,2013-08-24 11:55:00
5:15 AM,60.8,35.6,39,29.83,10.0,SSE,5.8,-,N/A,,Clear,150,2013-08-24 12:15:00
5:35 AM,60.8,37.4,42,29.83,10.0,SE,4.6,-,N/A,,Clear,140,2013-08-24 12:35:00
5:55 AM,60.8,37.4,42,29.83,10.0,Calm,Calm,-,N/A,,Clear,0,2013-08-24 12:55:00
6:15 AM,60.8,35.6,39,29.84,10.0,South,4.6,-,N/A,,Clear,170,2013-08-24 13:15:00
6:35 AM,60.8,35.6,39,29.84,10.0,SE,4.6,-,N/A,,Clear,140,2013-08-24 13:35:00
6:55 AM,60.8,35.6,39,29.84,10.0,SSE,4.6,-,N/A,,Clear,160,2013-08-24 13:55:00
7:15 AM,60.8,35.6,39,29.85,10.0,SSE,3.5,-,N/A,,Clear,160,2013-08-24 14:15:00
7:35 AM,64.4,37.4,37,29.85,10.0,South,3.5,-,N/A,,Clear,170,2013-08-24 14:35:00
7:55 AM,68.0,37.4,33,29.86,10.0,South,4.6,-,N/A,,Clear,180,2013-08-24 14:55:00
8:15 AM,69.8,39.2,33,29.86,10.0,SSW,3.5,-,N/A,,Clear,200,2013-08-24 15:15:00
8:35 AM,69.8,41.0,35,29.86,10.0,Calm,Calm,-,N/A,,Clear,0,2013-08-24 15:35:00
8:55 AM,71.6,42.8,35,29.86,10.0,SSW,3.5,-,N/A,,Clear,200,2013-08-24 15:55:00
9:15 AM,73.4,42.8,33,29.86,10.0,South,4.6,-,N/A,,Clear,180,2013-08-24 16:15:00
9:35 AM,75.2,44.6,34,29.87,10.0,West,5.8,-,N/A,,Clear,260,2013-08-24 16:35:00
9:55 AM,78.8,44.6,30,29.87,10.0,SW,5.8,-,N/A,,Clear,230,2013-08-24 16:55:00
10:15 AM,78.8,44.6,30,29.87,10.0,SW,5.8,-,N/A,,Clear,220,2013-08-24 17:15:00
10:35 AM,80.6,44.6,28,29.87,10.0,NW,5.8,-,N/A,,Clear,320,2013-08-24 17:35:00
10:55 AM,82.4,44.6,26,29.87,10.0,NW,4.6,-,N/A,,Clear,310,2013-08-24 17:55:00
11:15 AM,82.4,44.6,26,29.86,10.0,NNW,6.9,-,N/A,,Clear,330,2013-08-24 18:15:00
11:35 AM,84.2,44.6,25,29.86,10.0,WNW,5.8,-,N/A,,Clear,300,2013-08-24 18:35:00
11:55 AM,84.2,42.8,23,29.86,10.0,WNW,8.1,-,N/A,,Clear,300,2013-08-24 18:55:00
12:15 PM,86.0,44.6,23,29.86,10.0,West,5.8,-,N/A,,Clear,270,2013-08-24 19:15:00
12:35 PM,87.8,44.6,22,29.85,10.0,NW,6.9,-,N/A,,Clear,320,2013-08-24 19:35:00
12:55 PM,87.8,44.6,22,29.85,10.0,NW,5.8,-,N/A,,Clear,320,2013-08-24 19:55:00
1:15 PM,89.6,44.6,21,29.84,10.0,WNW,11.5,-,N/A,,Clear,290,2013-08-24 20:15:00
1:35 PM,91.4,44.6,20,29.84,10.0,WNW,10.4,-,N/A,,Clear,290,2013-08-24 20:35:00
1:55 PM,89.6,46.4,22,29.83,10.0,WNW,9.2,-,N/A,,Clear,300,2013-08-24 20:55:00
2:15 PM,91.4,44.6,20,29.82,10.0,WNW,10.4,-,N/A,,Clear,300,2013-08-24 21:15:00
2:35 PM,93.2,46.4,20,29.81,10.0,NNW,8.1,-,N/A,,Clear,340,2013-08-24 21:35:00
2:55 PM,93.2,46.4,20,29.80,10.0,NNW,11.5,-,N/A,,Clear,330,2013-08-24 21:55:00
3:15 PM,93.2,46.4,20,29.79,10.0,NW,10.4,16.1,N/A,,Clear,310,2013-08-24 22:15:00
3:35 PM,93.2,46.4,20,29.78,10.0,NNW,11.5,-,N/A,,Clear,330,2013-08-24 22:35:00
3:55 PM,93.2,46.4,20,29.77,10.0,NW,13.8,-,N/A,,Clear,320,2013-08-24 22:55:00
4:15 PM,93.2,48.2,21,29.76,10.0,North,8.1,-,N/A,,Clear,350,2013-08-24 23:15:00
4:35 PM,93.2,48.2,21,29.76,10.0,NW,12.7,16.1,N/A,,Clear,310,2013-08-24 23:35:00
4:55 PM,93.2,46.4,20,29.76,10.0,NW,11.5,-,N/A,,Clear,310,2013-08-24 23:55:00
5:15 PM,93.2,48.2,21,29.75,10.0,NW,11.5,-,N/A,,Clear,320,2013-08-25 00:15:00
5:35 PM,93.2,46.4,20,29.75,10.0,NW,12.7,-,N/A,,Clear,320,2013-08-25 00:35:00
5:55 PM,93.2,46.4,20,29.76,10.0,NNW,11.5,-,N/A,,Clear,330,2013-08-25 00:55:00
6:15 PM,93.2,46.4,20,29.76,10.0,NW,10.4,-,N/A,,Clear,310,2013-08-25 01:15:00
6:35 PM,91.4,48.2,23,29.76,10.0,WNW,8.1,-,N/A,,Clear,300,2013-08-25 01:35:00
6:55 PM,89.6,48.2,24,29.76,10.0,WNW,5.8,-,N/A,,Clear,300,2013-08-25 01:55:00
7:15 PM,89.6,46.4,22,29.77,10.0,NW,3.5,-,N/A,,Clear,310,2013-08-25 02:15:00
7:35 PM,87.8,46.4,24,29.77,10.0,Calm,Calm,-,N/A,,Clear,0,2013-08-25 02:35:00
7:55 PM,84.2,46.4,27,29.78,5.0,NW,3.5,-,N/A,,Clear,310,2013-08-25 02:55:00
8:15 PM,82.4,44.6,26,29.78,10.0,Calm,Calm,-,N/A,,Clear,0,2013-08-25 03:15:00
8:35 PM,78.8,44.6,30,29.80,10.0,West,3.5,-,N/A,,Clear,280,2013-08-25 03:35:00
8:55 PM,78.8,44.6,30,29.80,10.0,West,3.5,-,N/A,,Clear,280,2013-08-25 03:55:00
9:15 PM,78.8,44.6,30,29.81,10.0,Calm,Calm,-,N/A,,Clear,0,2013-08-25 04:15:00
9:35 PM,75.2,44.6,34,29.81,10.0,Calm,Calm,-,N/A,,Clear,0,2013-08-25 04:35:00
9:55 PM,73.4,42.8,33,29.83,10.0,WSW,3.5,-,N/A,,Clear,250,2013-08-25 04:55:00
10:15 PM,73.4,42.8,33,29.83,10.0,Calm,Calm,-,N/A,,Clear,0,2013-08-25 05:15:00
10:35 PM,75.2,42.8,31,29.83,10.0,NNE,3.5,-,N/A,,Clear,30,2013-08-25 05:35:00
10:55 PM,71.6,41.0,33,29.84,10.0,Calm,Calm,-,N/A,,Clear,0,2013-08-25 05:55:00
11:15 PM,71.6,41.0,33,29.84,10.0,Calm,Calm,-,N/A,,Clear,0,2013-08-25 06:15:00
11:35 PM,71.6,39.2,31,29.84,10.0,West,3.5,-,N/A,,Clear,280,2013-08-25 06:35:00
11:55 PM,71.6,41.0,33,29.85,10.0,Calm,Calm,-,N/A,,Clear,0,2013-08-25 06:55:00